Weather History for Sarasota, FL

Change the Weather History Date:

Saturday, December 15, 2012

  Actual Average Record
Temperature  
Mean Temperature 68 °F 64 °F  
Max Temperature 80 °F 73 °F 86 °F (1923)
Min Temperature 56 °F 54 °F 31 °F (2010)
Degree Days  
Heating Degree Days 0 4  
Month to date heating degree days 1 47  
Since 1 July heating degree days 42 80  
Cooling Degree Days 3 2  
Month to date cooling degree days 78 44  
Year to date cooling degree days 3802 3344  
Growing Degree Days 16 (Base 50)    
Moisture  
Dew Point 60 °F    
Average Humidity 82    
Maximum Humidity 100    
Minimum Humidity 54    
Precipitation  
Precipitation 0.00 in 0.09 in 2.24 in (1983)
Month to date precipitation 1.02 1.11  
Year to date precipitation 45.06 51.59  
Sea Level Pressure  
Sea Level Pressure 30.08 in    
Wind  
Wind Speed 6 mph (ENE)    
Max Wind Speed 12 mph    
Max Gust Speed 14 mph    
Visibility 9 miles    
Events      
T = Trace of Precipitation, MM = Missing Value Source: NWS Daily Summary

Daily Weather History Graph

Daily Weather History Graph

Search for Another Location

Airport:

Trip Planner

Search our weather history database for the weather conditions in past years. The results will help you decide how hot, cold, wet, or windy it might be!

Date:

Astronomy

Dec. 15, 2012 Rise Set
Actual Time 7:13 AM EST 5:38 PM EST
Civil Twilight 6:47 AM EST 6:03 PM EST
Nautical Twilight 6:18 AM EST 6:33 PM EST
Astronomical Twilight 5:49 AM EST 7:01 PM EST
Moon 9:13 AM EST (12/15) 8:30 PM EST (12/15)
Length of Visible Light 11h 16m
Length of Day
10h 25m
Waxing Crescent, 8% of the Moon is Illuminated
Dec 15
Waxing Crescent
Dec 20
First Quarter
Dec 28
Full
Jan 4
Last Quarter
Jan 11
New

Hourly Weather History & Observations

Time (EST) Temp. Dew Point Humidity Pressure Visibility Wind Dir Wind Speed Gust Speed Precip Events Conditions
12:53 AM 57.9 °F 55.9 °F 93% 30.09 in 9.0 mi NE 5.8 mph - N/A   Clear
1:53 AM 57.0 °F 55.9 °F 96% 30.09 in 7.0 mi NE 4.6 mph - N/A   Clear
2:53 AM 57.0 °F 55.9 °F 96% 30.09 in 7.0 mi NNE 4.6 mph - N/A   Clear
3:53 AM 57.0 °F 55.9 °F 96% 30.09 in 7.0 mi NE 5.8 mph - N/A   Clear
4:53 AM 55.9 °F 55.0 °F 97% 30.07 in 6.0 mi ENE 8.1 mph - N/A   Clear
5:53 AM 57.0 °F 55.9 °F 96% 30.08 in 7.0 mi ENE 5.8 mph - N/A   Clear
6:53 AM 57.0 °F 55.9 °F 96% 30.09 in 6.0 mi East 3.5 mph - N/A   Clear
7:53 AM 57.9 °F 57.0 °F 97% 30.10 in 6.0 mi ENE 6.9 mph - N/A   Clear
8:53 AM 63.0 °F 60.1 °F 90% 30.13 in 10.0 mi ENE 6.9 mph - N/A   Clear
9:53 AM 68.0 °F 61.0 °F 78% 30.13 in 10.0 mi ENE 6.9 mph - N/A   Partly Cloudy
10:53 AM 71.1 °F 62.1 °F 73% 30.13 in 10.0 mi ENE 8.1 mph - N/A   Overcast
11:53 AM 75.0 °F 63.0 °F 66% 30.11 in 10.0 mi ENE 8.1 mph - N/A   Clear
12:53 PM 77.0 °F 63.0 °F 62% 30.08 in 10.0 mi ESE 6.9 mph - 0.01 in   Partly Cloudy
1:53 PM 78.1 °F 62.1 °F 58% 30.06 in 10.0 mi East 6.9 mph - N/A   Mostly Cloudy
2:53 PM 78.1 °F 60.1 °F 54% 30.03 in 10.0 mi SE 11.5 mph - N/A   Scattered Clouds
3:53 PM 75.9 °F 61.0 °F 60% 30.04 in 10.0 mi Calm Calm - N/A   Scattered Clouds
4:53 PM 75.9 °F 64.0 °F 67% 30.04 in 10.0 mi West 6.9 mph - N/A   Overcast
5:53 PM 71.1 °F 63.0 °F 75% 30.05 in 10.0 mi NNW 5.8 mph - N/A   Mostly Cloudy
6:53 PM 69.1 °F 64.0 °F 84% 30.06 in 10.0 mi North 3.5 mph - N/A   Clear
7:53 PM 64.9 °F 63.0 °F 93% 30.06 in 10.0 mi Calm Calm - N/A   Clear
8:53 PM 64.9 °F 61.0 °F 87% 30.06 in 10.0 mi East 4.6 mph - N/A   Clear
9:53 PM 64.9 °F 60.1 °F 84% 30.06 in 10.0 mi East 6.9 mph - N/A   Clear
10:53 PM 66.0 °F 60.1 °F 81% 30.06 in 10.0 mi ESE 9.2 mph - N/A   Clear
11:53 PM 64.0 °F 60.1 °F 87% 30.04 in 10.0 mi ESE 5.8 mph - N/A   Clear